Regional Weather Roundup
Issued by NWS Pendleton, OR

Home | Current Version | Previous Version | Text Only | Print | Product List | Glossary On
Versions: 1 2 3 4 5 6 7 8 9 10 11 12 13 14 15 16 17 18 19 20 21 22 23 24 25 26 27 28 29 30 31 32 33 34 35 36 37 38 39 40 41 42 43 44 45 46 47 48 49 50
000
ASUS46 KPDT 281225
RWRPDT
PENDLETON REGIONAL WEATHER ROUNDUP
NATIONAL WEATHER SERVICE PENDLETON OREGON
500 AM PDT SAT MAY 28 2016

NOTE: FAIR INDICATES FEW OR NO CLOUDS BELOW 12,000 FEET WITH NO
SIGNIFICANT WEATHER AND/OR OBSTRUCTIONS TO VISIBILITY.

# INDICATES UNOFFICIAL STATION AND DATA

WAZ520-281310-
EAST SLOPES OF WASHINGTON CASCADES

CITY            SKY/WX      TMP DP  RH  WIND    PRES   REMARKS
#CLE ELUM HS    N/A         42  35  76  SW3     30.02S
#CLE ELUM 2NW   N/A         41  36  82  SW2     N/A
#GLENWOOD       N/A         33  31  92  CALM    30.08R
#MANASTASH CYN  N/A         40  31  70  CALM    30.01R
#NELSON 3SW     N/A         35  33  92  CALM    30.25F
#NILE           N/A         42  36  79  CALM    29.32S
#RONALD 2NW     N/A         42  N/A N/A N1      29.93S
#TEANAWAY 4NE   N/A         41  36  82  SW1     N/A
#TROUT LAKE 1NE N/A         43  36  76  CALM    30.08R
#TROUT LAKE 1E  N/A         41  36  82  CALM    30.04S
$$

WAZ521-281310-
SIMCOE HIGHLANDS

CITY            SKY/WX      TMP DP  RH  WIND    PRES   REMARKS
#CENTERVILLE 1SWN/A         39  34  82  CALM    30.06R
#GOLDENDALE 1NE N/A         40  28  62  SW2     N/A
#GOLDENDALE 4W  N/A         40  38  92  W1      30.11R
#GOODNOE HILLS  N/A         43  37  79  NW3     29.99R
#LYLE 6NE       N/A         45  40  82  SW7     30.06S
$$

WAZ026-281310-
KITTITAS VALLEY

CITY            SKY/WX      TMP DP  RH  WIND    PRES   REMARKS
ELLENSBURG AP   CLOUDY      46  34  63  CALM    30.05R
6HR MIN TEMP:   46; 6HR MAX TEMP:   49;

#ELLENSBURG CWU N/A         45  36  70  N8      29.99R
#ELLENSBURG 3NE N/A         45  36  70  NW2     30.05R
#ELLENSBURG     N/A         48  40  74  N3      N/A
#ELLENSBURG 1E  N/A         45  N/A N/A NW1     N/A
#ELLENSBURG 13S N/A         47  38  71  CALM    N/A
#KITTITAS 4N    N/A         45  34  65  W12     30.06S WCI 39
#KITTITAS 3S    N/A         45  38  76  W7      30.03R
#THORP 6N       N/A         42  35  76  NW14    30.06R WCI 35
$$

WAZ027-281310-
YAKIMA VALLEY

CITY            SKY/WX      TMP DP  RH  WIND    PRES   REMARKS
SUNNYSIDE AP    PTCLDY      38  35  89  CALM    30.07R
YAKIMA AIRPORT  MOCLDY      53  33  46  N9      30.05S
6HR MIN TEMP:   51; 6HR MAX TEMP:   57;

YAKIMA-VAGABOND MOCLDY      44  35  70  NW2     30.03S
6HR MIN TEMP:   44; 6HR MAX TEMP:   50;

#DONALD 2NE     N/A         48  23  37  CALM    28.91R
#GRANDVIEW      N/A         42  36  79  CALM    30.07R
#MABTON         N/A         47  37  68  S5      30.06R
#NACHES 2SW     N/A         47  37  68  W7      30.05S
#TERRACE HTS    N/A         47  35  63  CALM    30.00S
#TOPPENISH      N/A         49  38  66  CALM    29.97R
#WEST VALLEY    N/A         49  35  58  N3      30.03R
#WHITE SWAN 5E  N/A         43  36  76  SW2     30.06R
#WILEY CITY 3W  N/A         41  33  73  CALM    30.02R
$$

WAZ028-281310-
LOWER COLUMBIA BASIN...WASHINGTON

CITY            SKY/WX      TMP DP  RH  WIND    PRES   REMARKS
PASCO           PTCLDY      50  39  66  S10     30.08R
6HR MIN TEMP:   47; 6HR MAX TEMP:   57;

PROSSER AWOS    N/A         41  37  86  N2      30.10R
RICHLAND AWOS   PTCLDY      51  40  66  S8      30.07R
#BENTON CITY    N/A         42  36  79  N3      29.97R
#CONNELL 5N     N/A         41  36  82  SW2     30.05R
#CONNELL 5NW    N/A         44  38  79  CALM    30.01R
#ELTOPIA 6NW    N/A         46  39  76  CALM    29.02R
#KAHLOTUS       N/A         44  39  82  W14     30.04R WCI 37
#KENNEWICK 3S   N/A         47  40  76  N6      30.06R
#PATERSON       N/A         48  39  71  CALM    30.05S
#SAGEMOOR 2W    N/A         44  39  82  CALM    29.91R
#TOUCHET 2S     N/A         50  39  66  CALM    30.06R
#WEST PASCO     N/A         49  39  68  S1      30.15R
$$

WAZ029-281310-
FOOTHILLS OF THE BLUES...WASHINGTON

CITY            SKY/WX      TMP DP  RH  WIND    PRES   REMARKS
WALLA WALLA AP  MOCLDY      49  36  61  S12     30.09R WCI 44
6HR MIN TEMP:   48; 6HR MAX TEMP:   54;

#CLYDE 6NW      N/A         46  39  76  SW5     30.06R
#DAYTON SCHOOL  N/A         45  33  63  CALM    30.09R
#LOWDEN 2SE     N/A         51  38  61  SW7     30.06R
#PLEASANT VIEW 1N/A         43  38  82  SW7     30.09R
#PRESCOTT       N/A         47  40  76  CALM    30.06R
#SUDBURY        N/A         62  N/A N/A CALM    N/A
#WHITMAN COLLEGEN/A         50  38  63  CALM    30.13R
#WAITSBURG 5S   N/A         44  38  79  S7      30.17R
#WAITSBURG 8N   N/A         44  20  38  S1      29.94R
#WALLA WALLA U  N/A         52  39  61  CALM    30.09R
#WHITMAN MISSIONN/A         52  40  63  CALM    30.11R
$$

WAZ030-281310-
BLUE MOUNTAINS...WASHINGTON

CITY            SKY/WX      TMP DP  RH  WIND    PRES   REMARKS
#DIXIE 5SE      N/A         42  35  76  S8      30.00R
$$

ORZ009-041-WAZ024-281310-
COLUMBIA RIVER GORGE

CITY            SKY/WX      TMP DP  RH  WIND    PRES   REMARKS
HOOD RIVER AP   PTCLDY      43  37  79  CALM    30.13R
THE DALLES AP   PTCLDY      51  38  61  NW13    30.11R
6HR MIN TEMP:   51; 6HR MAX TEMP:   56;

#ARLINGTON AIRPON/A         48  38  68  W3      30.09R
#CELILO DOT     N/A         52  37  56  SW7     N/A
#LYLE           N/A         52  42  69  W7      30.12R
#MARYHILL 2W    N/A         49  42  77  E3      N/A
#MOSIER 1S      N/A         48  30  49  W3      30.09S
#MURDOCK        N/A         52  41  66  NW6     30.08R
#RUFUS DOT      N/A         53  39  59  W16     N/A
#SMITHVILLE     N/A         51  41  68  W8      30.04F

$$

ORZ510-281310-
NORTH CENTRAL OREGON

CITY            SKY/WX      TMP DP  RH  WIND    PRES   REMARKS
#ANTELOPE       N/A         35  32  89  NE1     29.98R
#CHENOWITH 1W   N/A         45  37  73  W24     N/A    WCI 36
#COW CYN RST AREN/A         40  N/A N/A CALM    N/A
#DUFUR 9E       N/A         44  37  76  CALM    30.14R
#GRASS VALLEY   N/A         37  36  96  S2      N/A
#GRASS VALLEY 1SN/A         39  36  89  S2      30.02S
#KENT DOT       N/A         38  31  76  N9      N/A
#MAUPIN SCHOOL  N/A         44  37  76  CALM    30.13S
#MORO SCHOOL    N/A         37  35  92  CALM    30.09S
#SHANIKO 4NW    N/A         38  -62  1  SW2     30.08S
#TYGH VALLEY 2NEN/A         39  35  85  CALM    30.09S
#WAPANITIA AIRPON/A         42  36  79  NW2     30.09S
#WASCO DOT      N/A         46  37  71  SW3     N/A
#WASCO AIRPORT  N/A         46  36  68  SW10    N/A
#WASCO 5NE      N/A         44  37  76  SW3     30.07R
$$

ORZ511-281310-
CENTRAL OREGON

CITY            SKY/WX      TMP DP  RH  WIND    PRES   REMARKS
BEND AIRPORT    CLEAR       37  30  75  S6      30.10S
MADRAS AIRPORT  CLEAR       39  39  100 SE6     30.13R
PRINEVILLE AP   CLEAR       30  30  100 CALM    30.11R
REDMOND AIRPORT CLEAR       34  29  82  S6      30.10S
6HR MIN TEMP:   33; 6HR MAX TEMP:   46;

#ASHWOOD SCHOOL N/A         38  33  82  SE5     30.07R
#BEND 1SW       N/A         35  32  89  N2      N/A
#BEND-AWBREY    N/A         39  33  79  S3      30.08S
#BEND-KIM LN    N/A         39  33  79  S3      30.07S
#CULVER         N/A         37  32  82  CALM    30.07R
#CULVER 8W      N/A         32  29  89  CALM    30.08R
#LAKE BILLY CHINN/A         37  N/A N/A CALM    30.18S
#MADRAS 4S      N/A         36  19  50  S6      30.16R
#POWELL BUTTE 3EN/A         33  30  89  SE2     N/A
#POWELL BUTTE   N/A         37  31  79  SE2     29.96S
#PRINEVILLE 3N  N/A         34  31  89  E1      30.11R

$$


ORZ509-281310-
EAST SLOPES OF OREGON CASCADES

CITY            SKY/WX      TMP DP  RH  WIND    PRES   REMARKS
SISTERS AWOS    N/A         30  27  88  CALM    30.07S
#BLUE BOX PASS  N/A         36  N/A N/A NW2     N/A
#CAMP SHERMAN   N/A         31  28  88  CALM    30.17R
#LA PINE DOT    N/A         29  27  92  CALM    N/A
#LA PINE 4NW    N/A         26  22  85  CALM    30.13R
#LAVA BUTTE DOT N/A         29  27  92  CALM    N/A
#SISTERS AIRPOR N/A         29  29  100 CALM    30.17S
#SISTERS ODOT   N/A         29  N/A N/A CALM    N/A
#SISTERS 1NW    N/A         28  24  85  VRB5    N/A
#SISTERS 3N     N/A         30  22  72  CALM    30.08S
#SUNRIVER       N/A         29  26  88  CALM    30.12R
#TUMALO 3W      N/A         37  27  67  SW2     29.97S
#WANOGA BUTTE D N/A         33  24  69  W2      N/A

$$

ORZ044-281310-
LOWER COLUMBIA BASIN...OREGON

CITY            SKY/WX      TMP DP  RH  WIND    PRES   REMARKS
HERMISTON       PTCLDY      48  37  65  S8      30.08R
6HR MIN TEMP:   47; 6HR MAX TEMP:   55;

#BOARDMAN SCHOOLN/A         50  39  66  SW7     30.07R
#BOARDMAN 8SW   N/A         48  39  71  SW7     30.07
#ECHO 8SW       N/A         48  39  71  SW5     30.09R
#I-84 EX 198 DOTN/A         46  34  63  NE8     N/A
#UMATILLA SCHOOLN/A         42  41  96  CALM    30.11S
#UMATILLA       N/A         49  37  63  S1      30.01S
$$

ORZ507-281310-
NORTHERN FOOTHILLS OF THE BLUES

CITY            SKY/WX      TMP DP  RH  WIND    PRES   REMARKS
PENDLETON AIRPT CLOUDY      49  34  56  CALM    30.08R
6HR MIN TEMP:   47; 6HR MAX TEMP:   52;

#ADAMS 3WNW     N/A         41  35  79  CALM    30.08S
#ATHENA         N/A         45  36  70  CALM    30.10R
#CAYUSE         N/A         46  37  71  E1      30.08R
#HELIX SCHOOL   N/A         42  36  79  CALM    30.07R
#HELIX 3N       N/A         41  36  82  SW3     30.04R
#HOLDMAN 5SE    N/A         46  39  76  CALM    30.08R
#HOLDMAN 6E     N/A         45  37  73  N3      29.89R
#M-F GROVE ELEM N/A         50  34  54  SE2     30.07R
#M-FREEWATER 5SEN/A         46  36  68  CALM    30.09R
#PENDLETON DNTN N/A         51  31  46  CALM    30.10S
#PDT AQUATIC CTRN/A         49  31  50  CALM    30.11S
#PDT SUNRIDGE   N/A         47  37  68  CALM    30.11R
#PENDLETON 7NW  N/A         47  37  68  CALM    31.97S
#PILOT ROCK 1S  N/A         42  31  65  CALM    30.09R
#PILOT ROCK     N/A         43  33  67  SW3     30.10R
#TUTUILLA       N/A         42  37  82  CALM    30.09S
#UMAPINE 2E     N/A         51  38  61  CALM    30.07R
#WESTON SCHOOL  N/A         45  33  63  N6      29.99R

$$

ORZ508-281310-
SOUTHERN FOOTHILLS OF THE BLUES

CITY            SKY/WX      TMP DP  RH  WIND    PRES   REMARKS
LEXINGTON       PTCLDY      45  36  70  SE5     30.12R
#AJAX           N/A         42  31  65  E1      27.82S
#CONDON SCHOOL  N/A         38  35  89  SW3     30.03S
#CONDON 5W      N/A         38  33  82  SW9     30.05R
#FOSSIL SCHOOL  N/A         36  33  89  CALM    30.04R
#HEPPNER EOC    N/A         43  36  76  SW1     30.02R
#HEPPNER 4NE    N/A         38  34  85  CALM    30.08R
#RUGGS 5NE      N/A         38  35  89  SW3     30.20S
#RUGGS 2SW      N/A         40  34  79  SW8     30.10R

$$

ORZ502-503-281310-
BLUE MOUNTAINS

CITY            SKY/WX      TMP DP  RH  WIND    PRES   REMARKS
MEACHAM         MOCLDY      31  28  88  CALM    30.08R
6HR MIN TEMP:   31; 6HR MAX TEMP:   43;

#BATTLE MTN DOT N/A         33  33  100 S6      N/A
#CUTSFORTH PARK N/A         31  28  88  CALM    29.84R
#GREENHORN 9SW  N/A         30  27  88  CALM    26.28R
#HARDMAN 10S    N/A         61  34  36  N5      30.22S
#HEPPNER 15SE   N/A         34  32  92  CALM    25.59F
#LADD CYN SMT   N/A         33  28  82  N9      N/A
#LADD CREEK ODOTN/A         35  31  85  SW2     N/A
#LONG CREEK HS  N/A         35  35  100 CALM    N/A
#N POWDER DOT   N/A         36  33  89  NE3     N/A
#PIKES PEAK     N/A         40  32  73  SW16    27.99S WCI 32
#TOLLGATE       N/A         32  30  92  S5      29.91R
#TROY SCHOOL    N/A         42  38  86  CALM    29.93R
#UKIAH          N/A         29  27  92  CALM    30.03R
#WESTON 4E      N/A         39  34  82  S5      30.05R
$$

ORZ505-281310-
JOHN DAY BASIN

CITY            SKY/WX      TMP DP  RH  WIND    PRES   REMARKS
JOHN DAY        N/A         N/A N/A N/A MISG    N/A
#DAYVILLE SCHOOLN/A         42  31  65  CALM    30.07R
#MITCHELL       N/A         37  33  85  E1      30.24S
#MONUMENT HS    N/A         40  33  76  CALM    30.09R
#MT. VERNON 5SE N/A         36  32  85  CALM    30.05R
#SPRAY SCHOOL   N/A         39  N/A N/A CALM    N/A
#WINLOCK        N/A         36  32  85  CALM    30.06R
$$

ORZ506-281310-
OCHOCO AND JOHN DAY HIGHLANDS

CITY            SKY/WX      TMP DP  RH  WIND    PRES   REMARKS
#BUCK CREEK DOT N/A         39  34  82  N2      N/A
#HORSE RIDGE DO N/A         25  23  92  E1      N/A
#KEYES SMT DOT  N/A         37  31  79  NW5     N/A
#PAULINA SCHOOL N/A         33  29  85  CALM    N/A
#PINE MTN OBS   N/A         33  26  75  NW1     N/A
#PRAIRIE CITY   N/A         34  30  85  CALM    30.23R
#SENECA         N/A         31  N/A N/A CALM    N/A
#SENECA 9NW     N/A         27  25  92  CALM    30.06R
$$

ORZ049-281310-
GRANDE RONDE VALLEY

CITY            SKY/WX      TMP DP  RH  WIND    PRES   REMARKS
LA GRANDE       PTCLDY      41  27  57  W9      30.08R
#COVE           N/A         37  34  89  N1      30.11R
#COVE SCHOOL    N/A         37  33  85  CALM    30.10R
#COVE 6NW       N/A         38  32  79  CALM    29.97R
#ELGIN 3N       N/A         35  30  82  CALM    30.06R
#ELGIN 1E       N/A         37  31  79  CALM    N/A
#ISLAND CITY 4N N/A         45  43  93  CALM    30.16S
#LADD CYN DOT   N/A         40  32  73  SE10    N/A
#UNION 1S       N/A         40  34  79  E2      29.99R
$$

ORZ050-281310-
WALLOWA COUNTY

CITY            SKY/WX      TMP DP  RH  WIND    PRES   REMARKS
JOSEPH AIRPORT  PTCLDY      30  27  88  S3      N/A
#ENTERPRISE AP  N/A         49  29  46  CALM    30.01R
#ENTERPRISE HS  N/A         30  27  88  CALM    30.10R
#IMNAHA SCHOOL  N/A         39  35  85  S1      30.09R
#IMNAHA 10S     N/A         37  32  82  SW3     30.07R
#JOSEPH 3N      N/A         29  24  81  CALM    30.09R
#JOSEPH 3W      N/A         32  28  85  SW2     29.88R
#LOSTINE 3SE    N/A         33  29  85  S2      30.06R
#MT HOWARD 8000 N/A         27  21  78  CALM    30.01R
#PROMISE 1S     N/A         38  33  82  CALM    30.17R
#WALLOWA SCHOOL N/A         32  30  92  CALM    30.06R



$$



USA.gov is the U.S. government's official web portal to all federal, state and local government web resources and services.